ENST Weather Reports


time (UTC)temp
F
wind
direction
speed
knots
gust
knots
rain 1hr
in
rain 24hr
in
rain mn
in
humidity
%
barometer
mb
20260508100307 48 240 2.6 0.0 0.00 0.00 0.00 45 1022.0
20260508093307 48 0 4.3 0.0 0.00 0.00 0.00 42 1022.0
20260508090307 46 0 2.6 0.0 0.00 0.00 0.00 45 1022.0
20260508083307 46 100 4.3 0.0 0.00 0.00 0.00 45 1022.0
20260508080306 44 90 4.3 0.0 0.00 0.00 0.00 52 1022.0
20260508073307 44 0 1.7 0.0 0.00 0.00 0.00 56 1022.0
20260508070306 42 0 1.7 0.0 0.00 0.00 0.00 70 1022.0
20260508063306 42 0 1.7 0.0 0.00 0.00 0.00 70 1022.0
20260508060306 42 0 1.7 0.0 0.00 0.00 0.00 75 1022.0
20260508053307 41 0 0.0 0.0 0.00 0.00 0.00 86 1022.0
20260508050306 39 0 0.0 0.0 0.00 0.00 0.00 86 1022.0
20260508043306 37 0 0.9 0.0 0.00 0.00 0.00 93 1022.0
20260508040307 37 0 0.9 0.0 0.00 0.00 0.00 93 1022.0
20260508033306 35 110 2.6 0.0 0.00 0.00 0.00 93 1022.0
20260508030306 35 120 4.3 0.0 0.00 0.00 0.00 93 1022.0
20260508023307 37 100 5.2 0.0 0.00 0.00 0.00 86 1022.0
20260508020307 39 200 10.4 0.0 0.00 0.00 0.00 80 1022.0
20260508013307 39 160 5.2 0.0 0.00 0.00 0.00 80 1021.0
20260508010306 37 120 4.3 0.0 0.00 0.00 0.00 86 1021.0
20260508003306 37 180 13.0 0.0 0.00 0.00 0.00 80 1021.0
20260508000306 39 180 8.7 0.0 0.00 0.00 0.00 75 1021.0
20260507233306 37 180 12.2 0.0 0.00 0.00 0.00 80 1021.0
20260507230306 37 190 6.1 0.0 0.00 0.00 0.00 86 1021.0
20260507223306 37 130 2.6 0.0 0.00 0.00 0.00 86 1020.0
20260507220306 37 270 6.1 0.0 0.00 0.00 0.00 80 1020.0
20260507213306 39 180 4.3 0.0 0.00 0.00 0.00 80 1020.0
20260507210307 39 180 5.2 0.0 0.00 0.00 0.00 80 1020.0
20260507203307 39 190 4.3 0.0 0.00 0.00 0.00 86 1019.0
20260507200305 41 230 6.1 0.0 0.00 0.00 0.00 80 1019.0
20260507193306 41 230 7.0 0.0 0.00 0.00 0.00 80 1019.0
20260507190307 42 240 5.2 0.0 0.00 0.00 0.00 75 1018.0
20260507183307 42 230 6.1 0.0 0.00 0.00 0.00 75 1018.0
20260507180310 42 230 7.0 0.0 0.00 0.00 0.00 75 1018.0
20260507173308 42 230 7.8 0.0 0.00 0.00 0.00 75 1018.0
20260507170307 42 240 7.0 0.0 0.00 0.00 0.00 70 1018.0
20260507163307 42 240 7.8 0.0 0.00 0.00 0.00 75 1017.0
20260507160308 42 240 7.0 0.0 0.00 0.00 0.00 81 1017.0
20260507153308 41 220 2.6 0.0 0.00 0.00 0.00 80 1017.0
20260507150308 37 240 6.1 0.0 0.00 0.00 0.00 86 1017.0
20260507143307 41 210 11.3 0.0 0.00 0.00 0.00 80 1017.0
20260507140308 42 210 12.2 0.0 0.00 0.00 0.00 75 1017.0
20260507133307 42 210 11.3 0.0 0.00 0.00 0.00 75 1017.0
20260507130307 42 210 13.0 0.0 0.00 0.00 0.00 81 1016.0
20260507123308 42 210 12.2 0.0 0.00 0.00 0.00 75 1016.0
20260507120307 42 210 10.4 0.0 0.00 0.00 0.00 81 1016.0
20260507113308 41 200 12.2 0.0 0.00 0.00 0.00 86 1016.0
20260507110307 41 210 12.2 0.0 0.00 0.00 0.00 93 1016.0
20260507103307 37 190 10.4 0.0 0.00 0.00 0.00 93 1016.0